EW3836 Weather Reports


Display with metric or nautical units.
time (UTC)temp
F
wind
direction
speed
MPH
gust
MPH
rain 1hr
in
rain 24hr
in
rain mn
in
humidity
%
barometer
mb
20260831144558 60 139 0.0 0.0 0.00 0.00 0.00 41 1012.0
20260831143100 59 124 0.0 0.0 0.00 0.00 0.00 42 1011.9
20260831141558 58 116 0.0 0.0 0.00 0.00 0.00 43 1011.8
20260831140048 56 121 0.0 0.0 0.00 0.00 0.00 44 1011.9
20260831134553 56 133 0.0 0.0 0.00 0.00 0.00 45 1011.8
20260831133046 56 128 0.0 0.0 0.00 0.00 0.00 45 1011.8
20260831131547 56 125 0.0 0.0 0.00 0.00 0.00 45 1011.8
20260831130044 56 123 0.0 0.0 0.00 0.00 0.00 44 1012.0
20260831124555 57 93 0.0 0.0 0.00 0.00 0.00 43 1011.9
20260831123041 56 110 0.0 0.0 0.00 0.00 0.00 45 1012.0
20260831121539 56 111 0.0 0.0 0.00 0.00 0.00 44 1011.9
20260831120046 56 111 0.0 0.0 0.00 0.00 0.00 44 1012.1
20260831114547 56 111 0.0 0.0 0.00 0.00 0.00 45 1012.2
20260831113036 56 129 0.0 0.0 0.00 0.00 0.00 46 1012.2
20260831111534 55 117 0.0 0.0 0.00 0.00 0.00 47 1012.2
20260831110033 55 118 0.0 0.0 0.00 0.00 0.00 47 1012.2
20260831104544 56 117 0.0 0.0 0.00 0.00 0.00 46 1012.3
20260831103035 56 132 0.0 0.0 0.00 0.00 0.00 46 1012.3
20260831101529 56 120 0.0 0.0 0.00 0.00 0.00 47 1012.4
20260831100038 56 124 0.0 0.0 0.00 0.00 0.00 47 1012.5
20260831094526 56 120 0.0 0.0 0.00 0.00 0.00 47 1012.6
20260831093033 56 118 0.0 0.0 0.00 0.00 0.00 48 1012.7
20260831091521 56 126 0.0 0.0 0.00 0.00 0.00 48 1012.9
20260831090018 55 124 0.0 0.0 0.00 0.00 0.00 49 1013.2
20260831084516 55 126 0.0 0.0 0.00 0.00 0.00 49 1013.3
20260831083032 55 138 0.0 0.0 0.00 0.00 0.00 49 1013.4
20260831081513 55 115 0.0 0.0 0.00 0.00 0.00 50 1013.4
20260831080014 55 126 0.0 0.0 0.00 0.00 0.00 50 1013.4
20260831074511 56 130 0.0 0.0 0.00 0.00 0.00 50 1013.4
20260831073010 55 141 0.0 0.0 0.00 0.00 0.00 50 1013.5
20260831071522 57 141 0.0 0.0 0.00 0.00 0.00 49 1013.5
20260831070005 56 141 0.0 0.0 0.00 0.00 0.00 49 1013.5
20260831064504 56 141 0.0 0.0 0.00 0.00 0.00 49 1013.6
20260831063003 56 130 0.0 0.0 0.00 0.00 0.00 49 1013.7
20260831061505 56 121 0.0 0.0 0.00 0.00 0.00 49 1013.8
20260831060104 57 132 0.0 0.0 0.00 0.00 0.00 48 1013.8
20260831060001 57 132 0.0 0.0 0.00 0.00 0.00 48 1013.8
20260831054600 57 122 0.0 0.0 0.00 0.00 0.00 48 1013.8
20260831054501 57 125 0.0 0.0 0.00 0.00 0.00 48 1013.9
20260831053104 57 126 0.0 0.0 0.00 0.00 0.00 49 1013.8
20260831051602 58 123 0.0 0.0 0.00 0.00 0.00 48 1014.0
20260831050113 58 92 0.0 0.0 0.00 0.00 0.00 48 1014.1
20260831044619 58 92 0.0 0.0 0.00 0.00 0.00 48 1014.3
20260831043057 58 92 0.0 0.0 0.00 0.00 0.00 48 1014.3
20260831041613 59 59 0.0 0.0 0.00 0.00 0.00 47 1014.3
20260831040056 59 35 0.0 0.0 0.00 0.00 0.00 48 1014.2
20260831034558 59 35 0.0 0.0 0.00 0.00 0.00 48 1014.2
20260831033055 60 35 0.0 0.0 0.00 0.00 0.00 47 1014.3
20260831031600 61 35 0.0 0.0 0.00 0.00 0.00 45 1014.1
20260831030058 62 35 0.0 0.0 0.00 0.00 0.00 44 1014.2
20260831024612 63 35 0.0 0.0 0.00 0.00 0.00 43 1014.0
20260831023053 64 35 0.0 0.0 0.00 0.00 0.00 41 1013.9
20260831021552 66 35 0.0 0.0 0.00 0.00 0.00 39 1013.8
20260831020105 68 35 0.0 0.0 0.00 0.00 0.00 37 1013.8
20260831014601 68 35 0.0 0.0 0.00 0.00 0.00 37 1013.9
20260831013048 69 35 0.0 0.0 0.00 0.00 0.00 36 1014.0
20260831011547 69 360 0.0 0.0 0.00 0.00 0.00 36 1014.1
20260831010049 70 22 0.0 0.0 0.00 0.00 0.00 35 1014.2
20260831004543 68 355 0.0 0.0 0.00 0.00 0.00 36 1014.3
20260831003044 67 298 0.0 0.0 0.00 0.00 0.00 32 1014.4
20260831001551 68 328 0.0 0.0 0.00 0.00 0.00 32 1014.4
20260831000038 68 297 0.0 0.0 0.00 0.00 0.00 32 1014.5
20260830234550 68 317 0.0 0.0 0.00 0.00 0.00 33 1014.7
20260830233034 67 294 0.0 0.0 0.00 0.00 0.00 33 1014.8
20260830231530 67 318 0.0 0.0 0.00 0.00 0.00 33 1014.8
20260830230035 67 289 0.0 0.0 0.00 0.00 0.00 34 1014.9
20260830224533 67 184 0.0 0.0 0.00 0.00 0.00 34 1015.1
20260830223023 66 292 0.0 0.0 0.00 0.00 0.00 36 1015.1
20260830221520 67 263 0.0 0.0 0.00 0.00 0.00 35 1015.3
20260830220027 66 290 0.0 0.0 0.00 0.00 0.00 37 1015.5
20260830214517 66 292 0.0 0.0 0.00 0.00 0.00 37 1015.7
20260830213015 65 284 0.0 0.0 0.00 0.00 0.00 38 1015.7
20260830211511 64 248 0.0 0.0 0.00 0.00 0.00 39 1015.8
20260830210009 64 258 0.0 0.0 0.00 0.00 0.00 39 1016.0
20260830204510 64 220 0.0 0.0 0.00 0.00 0.00 40 1016.2
20260830203005 63 350 0.0 0.0 0.00 0.00 0.00 41 1016.2
20260830201505 62 244 0.0 0.0 0.00 0.00 0.00 43 1016.4
20260830200100 62 322 0.0 0.0 0.00 0.00 0.00 43 1016.4
20260830194558 62 182 0.0 0.0 0.00 0.00 0.00 43 1016.4
20260830193056 62 242 0.0 0.0 0.00 0.00 0.00 43 1016.5
20260830191554 60 266 0.0 0.0 0.00 0.00 0.00 47 1016.6
20260830190050 60 243 0.0 0.0 0.00 0.00 0.00 47 1016.7
20260830184547 60 284 0.0 0.0 0.00 0.00 0.00 48 1016.9
20260830183044 58 280 0.0 0.0 0.00 0.00 0.00 52 1017.0
20260830181601 58 267 0.0 0.0 0.00 0.00 0.00 52 1017.1
20260830180037 57 248 0.0 0.0 0.00 0.00 0.00 53 1017.1
20260830174538 56 275 0.0 0.0 0.00 0.00 0.00 55 1017.2
20260830173035 56 244 0.0 0.0 0.00 0.00 0.00 56 1017.2
20260830171533 55 256 0.0 0.0 0.00 0.00 0.00 58 1017.2
20260830170028 54 171 0.0 0.0 0.00 0.00 0.00 60 1017.4
20260830164526 54 252 0.0 0.0 0.00 0.00 0.00 60 1017.4
20260830163032 53 223 0.0 0.0 0.00 0.00 0.00 60 1017.4
20260830161521 52 200 0.0 0.0 0.00 0.00 0.00 61 1017.3
20260830160016 52 229 0.0 0.0 0.00 0.00 0.00 62 1017.3
20260830154514 51 252 0.0 0.0 0.00 0.00 0.00 64 1017.2
20260830153029 51 218 0.0 0.0 0.00 0.00 0.00 65 1017.1
20260830151513 50 219 0.0 0.0 0.00 0.00 0.00 68 1017.1
20260830150008 49 197 0.0 0.0 0.00 0.00 0.00 69 1017.2